Regional Weather Roundup
Issued by NWS

Home | Current Version | Previous Version | Text Only | Print | Product List | Glossary On
Versions: 1 2 3 4 5 6 7 8 9 10 11 12 13 14 15 16 17 18 19 20 21 22 23 24 25 26 27 28 29 30 31 32 33 34 35 36 37 38 39 40 41 42 43 44 45 46 47 48 49 50
000
ASUS42 KTBW 201510
RWRFL
FLORIDA REGIONAL WEATHER ROUNDUP
NATIONAL WEATHER SERVICE TAMPA BAY RUSKIN FL
1100 AM EDT SAT SEP 20 2014

NOTE: "FAIR" INDICATES FEW OR NO CLOUDS BELOW 12,000 FEET WITH NO
SIGNIFICANT WEATHER AND/OR OBSTRUCTIONS TO VISIBILITY.


FLZ001>010-012>015-112-114-115-201600-
PANHANDLE FLORIDA

CITY           SKY/WX    TMP DP  RH WIND       PRES   REMARKS
PENSACOLA      PTSUNNY   74  68  81 NE8       30.03R
PENSACOLA NAS  MOSUNNY   79  70  74 NE14      30.02R
MILTON NAS     CLOUDY    72  67  84 NE10G16   30.05R
CRESTVIEW      CLOUDY    73  69  87 NE7       30.06R
DUKE FIELD     CLOUDY    73  71  95 NE10      30.04S
VALPARAISO     PTSUNNY   75  67  75 NE13      30.02S
MARY ESTHER    MOSUNNY   75  64  69 NE13G18   30.02R
TRI COUNTY     CLOUDY    72  68  87 MISG      30.06R
PANAMA CITY    CLOUDY    74  69  85 NE10      30.02R
TYNDALL AFB    CLOUDY    73  73  99 E9        30.02R
APALACHICOLA   CLOUDY    76  69  79 NE12      30.00R

STATION/POSITION SKY/WX   TEMP    WIND        PRES    WAVE   SWELL
                          AIR SEA DIR/SP/G            HT/PER HT/PER
                          (F)     (DEG/KT/KT) (MB)    (FT/S) (FT/S)
30.1N   87.6W              79 85   70/ 17/ 19 1015.7R   4/ 7
29.2N   88.2W              82 84   90/ 17/ 21 1014.8R   6/ 7
28.8N   86.0W              81 84   80/ 16/ 19 1014.1R   5/ 6
PANAMA CITY BEAC           73 83   50/  9/ 16 1016.4R
CAPE SAN BLAS    NOT AVBL
TOWER C                    77      50/ 19/ 20 1015.3R
28.5N   84.5W              80 84   80/ 12/ 16 1014.2R   4/ 6

$$
FLZ011-016>038-118-127-128-134-139-239-201600-
NORTH FLORIDA

CITY           SKY/WX    TMP DP  RH WIND       PRES   REMARKS
MARIANNA       CLOUDY    74  71  91 NE12      30.05R
TALLAHASSEE    CLOUDY    73  68  84 NE9       30.02R
PERRY          CLOUDY    72  72 100 N6        30.01S
CROSS CITY       N/A     74  70  87 N7        29.99R
LAKE CITY      PTSUNNY   75  70  83 NE9G16    29.99S
GAINESVILLE    CLOUDY    75  70  84 N6        29.98R
MAYPORT NAS    CLOUDY    79  70  74 NE9       29.96S
JACKSONVILLE   CLOUDY    75  73  93 N7        29.97S
JAX NAS        CLOUDY    77  72  84 N9        29.97S
JAX CRAIG      CLOUDY    76  72  87 N3        29.97R
JAX CECIL      PTSUNNY   73  72  94 N7        29.97S
ST AUGUSTINE   CLOUDY    77  71  82 NE9       29.96S

STATION/POSITION SKY/WX   TEMP    WIND        PRES    WAVE   SWELL
                          AIR SEA DIR/SP/G            HT/PER HT/PER
                          (F)     (DEG/KT/KT) (MB)    (FT/S) (FT/S)
SHELL POINT                73      30/  6/ 12   N/A
KEATON BEACH               72      30/  5/  8 1016.0R
CEDAR KEY                  74      30/  5/  6 1015.1R
FERNANDINA                 78 83   20/  6/  8 1014.2F
30.7N   81.3W                 84                N/A     5/ 8
MAYPORT                    77 83   40/  8/ 11   N/A
31.4N   80.9W              78 83   60/ 21/ 25 1015.2R   6/ 6   3/21
ST AUGUSTINE               74      10/ 11/ 12 1014.9R

$$
FLZ040-043>046-052-053-057-058-063-144-201600-
INTERIOR CENTRAL FLORIDA

CITY           SKY/WX    TMP DP  RH WIND       PRES   REMARKS
OCALA          MOSUNNY   73  70  88 N7        29.97S
THE VILLAGES     N/A     75  72  88 CALM      29.87S FOG
LEESBURG       CLOUDY    74  70  87 N10       29.97S
SANFORD        LGT RAIN  74  72  93 N6        29.94R
ORLANDO EXEC   CLOUDY    74  71  91 N9        29.94R FOG
ORLANDO INTL   LGT RAIN  72  71  97 N9        29.94R
KISSIMMEE      LGT RAIN  72  72 100 N10       29.94R FOG
WINTER HAVEN   CLOUDY    74  71  91 N9        29.95R
LAKELAND       CLOUDY    73  70  88 N5        29.95R
BARTOW         CLOUDY    72  72 100 VRB6      29.95R
OKEECHOBEE     PTSUNNY   79  73  83 MISG      29.94R

$$
FLZ041-047-054-059-064-141-147-201600-
EAST CENTRAL FLORIDA

CITY           SKY/WX    TMP DP  RH WIND       PRES   REMARKS
ORMOND BEACH   MOSUNNY   75  72  88 N6        29.94F
DAYTONA BEACH  CLOUDY    76  72  87 N7        29.94S
DELAND         CLOUDY    75  72  88 NW7       29.96S
NEW SMYRNA BEA PTSUNNY   73  72  94 NW6       29.95R FOG
JFK SPACE CTR  DRIZZLE   77  72  83 N12       29.92R
TITUSVILLE     LGT RAIN  75  73  94 N6        29.92R
CAPE CANAVERAL CLOUDY    80  72  77 SW9       29.90S
PATRICK AFB    DRIZZLE   76  73  90 SW7       29.92R
MELBOURNE      CLOUDY    78  72  81 SW6       29.92S
VERO BEACH     CLOUDY    78  73  84 S9        29.93R
FT PIERCE      CLOUDY    80  73  79 S9        29.93R
STUART         PTSUNNY   77  73  88 S7        29.95R

STATION/POSITION SKY/WX   TEMP    WIND        PRES    WAVE   SWELL
                          AIR SEA DIR/SP/G            HT/PER HT/PER
                          (F)     (DEG/KT/KT) (MB)    (FT/S) (FT/S)
28.5N   80.2W              77 84  290/  8/ 10 1013.1R
28.9N   78.5W              81 84  210/ 16/ 19 1012.8R   6/ 8   3/ 8
TRIDENT PIER               78 84  190/  9/ 11 1012.5S
28.4N   80.5W                 83                N/A     2/ 9
27.6N   80.2W                 83                N/A     2/ 9

$$
FLZ050-056-061-142-242-148-248-149-249-151-251-155-255-
160-260-201600-
WEST CENTRAL FLORIDA

CITY           SKY/WX    TMP DP  RH WIND       PRES   REMARKS
CRYSTAL RIVER  FAIR      79  68  69 NE6       29.97S
INVERNESS      PTSUNNY   77  61  57 NE8       29.97S
BROOKSVILLE    PTSUNNY   76  71  85 NE5       29.97S
ZEPHYRHILLS    CLOUDY    66  66 100 N8        29.97R FOG
CLEARWATER     CLOUDY    74  71  91 N8        29.95S
TAMPA INTL     CLOUDY    76  70  82 N7        29.96R
TAMPA EXEC     CLOUDY    77  72  83 N3        29.96S
PLANT CITY     CLOUDY    75 N/A N/A N6        29.97S
MACDILL AFB    CLOUDY    74  74 100 N6        29.95S
ST PETERSBURG  PTSUNNY   75  71  87 N10       29.94R
SARASOTA       CLOUDY    79  73  82 N6        29.93R
VENICE           N/A    N/A N/A N/A MISG        N/A

STATION/POSITION SKY/WX   TEMP    WIND        PRES    WAVE   SWELL
                          AIR SEA DIR/SP/G            HT/PER HT/PER
                          (F)     (DEG/KT/KT) (MB)    (FT/S) (FT/S)
CEDAR KEY                  74      30/  5/  6 1015.1R
28.5N   84.5W              80 84   80/ 12/ 16 1014.2R   4/ 6
27.3N   84.3W                 85                N/A     2/ 5
CLEARWATER BEACH NOT AVBL
MIDDLE TAMPA BAY           75      10/  8/ 11 1014.5R
VENICE                     79 84  310/ 10/ 11 1013.6R

$$
FLZ066-069-070-075>078-162-262-165-265-201600-
SOUTHWEST FLORIDA AND KEYS

CITY           SKY/WX    TMP DP  RH WIND       PRES   REMARKS
PUNTA GORDA    LGT RAIN  76  72  87 W3        29.96R
FT MYERS       LGT RAIN  77  74  90 NW10      29.94R
SOUTHWEST INTL CLOUDY    80  62  54 W7        29.95R
NAPLES         CLOUDY    84  73  69 SW7       29.94R
MARCO ISLAND   CLOUDY    84  75  74 SW6       29.94S
MARATHON       CLOUDY    86  78  77 S6        29.94S HX  98
KEY WEST NAS   CLOUDY    86  75  69 S10       29.94R HX  95
KEY WEST INTL  CLOUDY    85  75  72 S10       29.94S

STATION/POSITION SKY/WX   TEMP    WIND        PRES    WAVE   SWELL
                          AIR SEA DIR/SP/G            HT/PER HT/PER
                          (F)     (DEG/KT/KT) (MB)    (FT/S) (FT/S)
VENICE                     79 84  310/ 10/ 11 1013.6R
NAPLES                     82 88  230/  5/  7 1014.4F
DRY TORTUGAS               84     180/ 12/ 13 1013.7R
NW FL BAY                  82     130/  5/  6 1013.9R
SAND KEY                   83     170/ 12/ 13 1013.8R
SOMBRERO KEY               84     180/ 12/ 13 1014.5R
LONG KEY                   84 85  190/  9/ 11 1014.6R
MOLASSES REEF              83 85  180/ 10/ 11 1014.0R

$$
FLZ067-068-071>074-168-172>174-201600-
SOUTHEAST FLORIDA

CITY           SKY/WX    TMP DP  RH WIND       PRES   REMARKS
W PALM BEACH   CLOUDY    82  75  79 SW9       29.93R
FT LAUDER-EXEC PTSUNNY   84  76  76 SW8       29.94R
FT LAUDERDALE  PTSUNNY   84  74  71 SW10      29.94R
POMPANO BEACH  CLOUDY    86  73  65 SW9       29.94R
PEMBROKE PINES PTSUNNY   85  75  72 S10       29.95S
OPA LOCKA      PTSUNNY   85  74  69 SW9       29.95R
MIAMI          PTSUNNY   84  75  74 S9        29.95R
WEST KENDALL   PTSUNNY   86  75  69 VRB3      29.95R HX  95
HOMESTEAD      PTSUNNY   86  75  70 S9        29.94S HX  95

STATION/POSITION SKY/WX   TEMP    WIND        PRES    WAVE   SWELL
                          AIR SEA DIR/SP/G            HT/PER HT/PER
                          (F)     (DEG/KT/KT) (MB)    (FT/S) (FT/S)
PORT EVERGLADES            84     190/  6/ 10 1013.9
VIRGINIA KEY               82 84  250/  5/  7   N/A
LAKE WORTH                 81 85  230/  5/  8 1013.6S
FOWEY ROCKS                85 85  200/  9/ 10 1014.2R
SETTLEMENT POINT           77      20/  3/  4 1014.9F

$$




USA.gov is the U.S. government's official web portal to all federal, state and local government web resources and services.